Hourly Data Report for September 07, 2017

All times are specified in Local Standard Time (LST). Add 1 hour to adjust for Daylight Saving Time where and when it is observed.

WINNIPEG A CS
MANITOBA

49°55'00.000" N
97°14'58.000" W
238.70 m
502S001
71849
XWG

Download Data

Hourly Data (September 2017)
Hourly Data Report for September 7, 2017
Temp Definition
°C
Dew Point Temp Definition
°C
Rel Hum Definition
%
Wind Dir Definition
10's deg

Wind Spd Definition
km/h
Visibility Definition
km
Stn Press Definition
kPa
Hmdx Definition


Wind Chill Definition


Weather Definition


TIME
00:00 15.3 5.2 51 18 17   98.49     LegendNANA
01:00 15.0 5.3 52 18 18   98.44     LegendNANA
02:00 14.3 5.5 55 19 18   98.36     LegendNANA
03:00 13.4 5.7 59 19 16   98.30     LegendNANA
04:00 13.0 5.3 59 20 14   98.25     LegendNANA
05:00 12.1 5.4 63 21 10   98.21     LegendNANA
06:00 11.0 5.5 69 24 8   98.21     LegendNANA
07:00 12.0 6.1 68 28 7   98.24     LegendNANA
08:00 14.5 7.7 64 33 16   98.28     LegendNANA
09:00 16.3 8.2 59 2 20   98.37     LegendNANA
10:00 19.1 8.3 49 2 22   98.47     LegendNANA
11:00 20.2 7.7 44 2 25   98.51     LegendNANA
12:00 20.2 6.9 42 4 20   98.55     LegendNANA
13:00 21.8 7.4 39 3 22   98.63     LegendNANA
14:00 22.6 8.1 39 4 23   98.66     LegendNANA
15:00 22.1 6.5 36 5 23   98.71     LegendNANA
16:00 22.3 7.1 37 5 21   98.77     LegendNANA
17:00 20.3 6.6 41 6 18   98.81     LegendNANA
18:00 19.7 6.7 43 7 13   98.85     LegendNANA
19:00 17.3 7.4 52 7 13   98.92     LegendNANA
20:00 16.7 7.9 56 8 19   99.01     LegendNANA
21:00 15.1 7.7 62 9 22   99.11     LegendNANA
22:00 13.9 7.4 65 9 19   99.16     LegendNANA
23:00 13.0 7.1 67 10 21   99.21     LegendNANA

Notes on Data Quality.

Legend

  • E = Estimated
  • M = Missing
  • NA = Not Available
  • ‡ = Partner data that is not subject to review by the National Climate Archives
Date modified: